Submittal Forms
Current Contests
Recent Contests

Club Activity Tracker - Niagara Frontier Radiosport (from club selection on form)

Recent postings for the selected club or group are listed below. Other than the call used, all calls listed are only those associated with the club or group. Click on a call to see the details of the posting.
Status Key: new=new posting, update=update prior posting, move=change club/group, delete=delete prior posting.

Sort by   for past

TimestampCallContestClassPowerScoreStatus
2021-05-12 20:02:05W2VMCWopsTSingle OpLP2,500new6420
2021-05-12 14:02:24W2VMCWopsTSingle OpLP3,240new6419
2021-05-09 18:40:01NN2NNVolta RTTYSOAB-6HP8,098,188new6411
2021-05-09 18:34:39NN2NNCQ-MSOABCWHP5,705new6412
2021-05-09 13:30:13NS2NCQ-MSOABCWHP8,103new6412
2021-05-09 13:27:23NS2NArQPSOMixedHP14,128new6413
2021-05-09 13:19:41N2CUCQ-MSOABCWLP144new6412
2021-05-09 13:12:13N2CUArQPSO MobileLP5,400new6413
2021-05-09 12:24:58K2ZRCQ-MSOABCWLP28,740new6412
2021-05-09 12:10:30K2NVCQ-MSOABCWHP98,415new6412
 
2021-05-05 20:02:15W2VMCWopsTSingle OpLP4,224new6403
2021-05-05 14:02:06W2VMCWopsTSingle OpLP3,465new6402
2021-05-04 18:15:41K2QONewEngQPSingle OpHP1,254new6397
2021-05-04 18:13:27K2QOInQPSingle OpHP8new6395
2021-05-04 18:12:22K2QO7QPSO(A)CWHP1,071new6394
2021-05-04 18:06:33K2QOARISO CWHP250new6393
2021-05-04 13:46:46W2TB7QPSO(A)CWHP6,960new6394
2021-05-03 14:26:21K2ZRNewEngQPSingle OpLP264new6397
2021-05-03 14:19:47WB2WPMNewEngQPSingle OpHP10,208update6397
2021-05-03 13:08:57W2VMNewEngQPSingle OpLP4,550new6397
 
2021-05-03 03:14:38KD2KEHNewEngQPSingle OpLP620new6397
2021-05-03 01:40:21WB2WPMARISO CWHP1,053new6393
2021-05-03 00:04:24NS2NNewEngQPSingle OpHP23,856new6397
2021-05-03 00:03:09NN2NNNewEngQPSingle OpHP10,123new6397
2021-05-02 23:57:43NS2NInQPSingle OpHP1,176new6395
2021-05-02 23:55:21NS2NDeQPSingle OpHP240new6396
2021-05-02 23:53:36N2CUInQPSingle OpLP792new6395
2021-05-02 23:53:32NS2N7QPSO(A)MixedHP33,583new6394
2021-05-02 23:51:43N2CUNewEngQPSingle OpLP2,772new6397
2021-05-02 23:50:04N2CUDeQPSingle OpLP40new6396
 
2021-05-02 23:48:17N2CU7QPSOMixedLP6,880new6394
2021-05-02 20:40:33WB2AIVNewEngQPSingle OpLP2,236new6397
2021-05-02 14:41:30W2DXEARISO CWLP6,541new6393
2021-05-02 13:21:34NN2NNARISO MixedHP85,152new6393
2021-05-02 12:55:07NS2NARISO CWHP23,632new6393
2021-05-02 12:04:57K2NVARISO CWHP292,200new6393
2021-04-30 21:03:20K2NVKRC SSTSingle OpLP64new6391
2021-04-28 20:02:47W2VMCWopsTSingle OpLP2,915new6385
2021-04-28 14:02:47W2VMCWopsTSingle OpLP3,009new6384
2021-04-27 16:40:45W2VMFlQPSOAB(A)MixedLP30,256update6375
 
2021-04-27 00:59:39NS2NFlQPSOAB(A)CWLP45,248update6375
2021-04-26 23:20:59AC2FAFlQPSOABCWLP36new6375
2021-04-26 21:13:06NS2NSPDX RTTYSOABLP1,480new6372
2021-04-26 13:35:19K2QOFlQPSOAB(A)MixedLP31,372update6375
2021-04-26 03:07:42WB2AIVFlQPSOAB(A)CWLP988new6375
2021-04-26 02:43:39KD2KEHFlQPSOABMixedLP2,016new6375
2021-04-25 23:48:24W2TBFlQPSOAB(A)MixedHP39,060new6375
2021-04-25 23:06:55K2QBFlQPSOAB(A)CWHP5,700new6375
2021-04-25 22:57:39N2CUFlQPSOABMixedLP42,300new6375
2021-04-25 22:51:10K2NVFlQPSOAB(A)MixedLP110,348new6375
 
2021-04-25 22:33:16KM2LFlQPSOABMixedLP20,056new6375
2021-04-25 22:18:56WB2WPMFlQPSOABMixedHP30,400new6375
2021-04-25 22:10:17W2DXEFlQPSOABCWLP19,000new6375
2021-04-25 21:50:22NN2NNFlQPSOAB(A)MixedHP31,746new6375
2021-04-25 19:28:49K2ZR/4(K2ZR)FlQPSOAB(A)CWLP107,520new6375
2021-04-25 15:46:51AA2ZWFlQPSOABMixedLP19,680new6375
2021-04-25 03:24:22KD2KEHOnQPSO SSBLP48new5642
2021-04-25 03:21:19KD2KEHMiQPSingle OpLP20new6357
2021-04-21 20:02:41W2VMCWopsTSingle OpLP2,401new6365
2021-04-21 14:05:22K2NVCWopsTSingle OpLP3,599new6364
 
2021-04-21 14:03:23W2VMCWopsTSingle OpLP2,496new6364
2021-04-19 13:02:16KM2LCQMM DXSOABHP12,090new6356
2021-04-19 11:57:20K2QBCQMM DXSOSB/40HP4,725new6356
2021-04-19 02:37:48K2QOOnQPSO CWHP256new5642
2021-04-19 02:35:57K2QOCQMM DXSOABHP1,180new6356
2021-04-19 01:20:45NS2NOnQPSO CWLP2,376new5642
2021-04-19 01:14:40NS2NCQMM DXSOABLP55,024new6356
2021-04-19 00:06:55NN2NNOnQPSO CWHP96new5642
2021-04-19 00:05:04NN2NNCQMM DXSOABHP36,400new6356
2021-04-19 00:04:46K2ZR/4(K2ZR)CQMM DXSOABLP15,207new6356
 
2021-04-18 23:53:03W2DXECQMM DXSOABLP14,080new6356
2021-04-18 23:45:27WB2WPMCQMM DXSOABHP62,416new6356
2021-04-18 18:21:01K2NVCQMM DXSOABHP167,155new6356
2021-04-18 12:55:56AA2ZWCQMM DXSOABLP10,164new6356
2021-04-18 05:05:06NS2NMiQPSingle OpLP5,124new